Location: *
(48.8780°N, 19.2358°E)
Time: 21:50:14
(UTC+00:00)

H-2A R/B - Pass Details

Date: 18 October 2019
Orbit: 734 x 836 km, 98.3° (Epoch: 11 November)

Event Time Altitude Azimuth Distance (km) Brightness Sun altitude
Exits shadow 18:35:44 82° 346° (NNW) 835 2.1 -28.0°
Drops below altitude 10° 18:40:55 10° 346° (NNW) 2,447 5.0 -28.8°
Sets 18:43:19 0° 347° (NNW) 3,393 5.8 -29.2°
